This is the latest recevied weather packets stored in our database for station/object K5SVV. If no packets are shown the sender has not sent any weather packets the latest 10 day(s).
| Time | Temp. | Humidity | Pressure | Rain* | Wind** | Luminosity | Snow |
|---|---|---|---|---|---|---|---|
| 1777983109 | 20.56° C | 93% | 1003.9 hPa | 0 mm | - | 28 W/m² | - |
| 1777982806 | 20.56° C | 92% | 1003.9 hPa | 0 mm | - | 22 W/m² | - |
| 1777982501 | 20.56° C | 93% | 1003.8 hPa | 0 mm | - | 17 W/m² | - |
| 1777982196 | 20.56° C | 92% | 1003.9 hPa | 0 mm | - | 13 W/m² | - |
| 1777981893 | 20.56° C | 92% | 1004 hPa | 0 mm | - | 8 W/m² | - |
| 1777981585 | 20.56° C | 92% | 1003.9 hPa | 0 mm | - | 4 W/m² | - |
| 1777981280 | 20.56° C | 92% | 1003.8 hPa | 0 mm | - | 1 W/m² | - |
| 1777980977 | 20.56° C | 92% | 1003.8 hPa | 0 mm | - | 0 W/m² | - |
| 1777980673 | 20.56° C | 92% | 1003.9 hPa | 0 mm | - | 0 W/m² | - |
| 1777980370 | 20.56° C | 92% | 1004 hPa | 0 mm | - | 0 W/m² | - |
| 1777980068 | 20.56° C | 92% | 1003.8 hPa | 0 mm | - | 0 W/m² | - |
| 1777979762 | 20.56° C | 92% | 1003.9 hPa | 0 mm | - | 0 W/m² | - |
| 1777979458 | 20.56° C | 92% | 1003.8 hPa | 0 mm | - | 0 W/m² | - |
| 1777979155 | 20.56° C | 92% | 1003.9 hPa | 0 mm | - | 0 W/m² | - |
| 1777978851 | 20.56° C | 92% | 1003.6 hPa | 0 mm | - | 0 W/m² | - |
| 1777978549 | 20.56° C | 92% | 1003.6 hPa | 0 mm | - | 0 W/m² | - |
| 1777978244 | 20.56° C | 92% | 1003.7 hPa | 0 mm | - | 0 W/m² | - |
| 1777977942 | 20.56° C | 92% | 1003.5 hPa | 0 mm | - | 0 W/m² | - |
| 1777977639 | 20.56° C | 92% | 1003.8 hPa | 0 mm | - | 0 W/m² | - |
| 1777977335 | 20.56° C | 92% | 1003.6 hPa | 0 mm | - | 0 W/m² | - |
| 1777977033 | 20.56° C | 92% | 1003.7 hPa | 0 mm | - | 0 W/m² | - |
| 1777976730 | 20.56° C | 92% | 1003.7 hPa | 0 mm | - | 0 W/m² | - |
| 1777976427 | 20.56° C | 92% | 1004 hPa | 0 mm | - | 0 W/m² | - |
| 1777976126 | 20.56° C | 91% | 1003.9 hPa | 0 mm | - | 0 W/m² | - |
| 1777975822 | 20.56° C | 91% | 1004 hPa | 0 mm | - | 0 W/m² | - |
* Rain latest hour (hover to see other rain measurements)
** Current wind speed in m/s (hover to see current wind gust speed)